Voltar ao catálogo

THORAD AGENA D DEB

AtivoPO
NORAD 4818·DEBRIS·🇺🇸 United States

Lançado Apr 8, 1970 de Vandenberg Space Force Base

Loading…

Próximas Passagens

TLE

Source: Space-Track
1  4818U 70025DZ  26225.19240817  .00000343  00000-0  90993-3 0  9997
2  4818  99.8901 132.7105 0271884  65.0677  89.5534 13.10373565687288

Acompanhe THORAD AGENA D DEB em tempo real com AllMySat

Download on the App Store